Tracking 19246 objects as of 21-Sep-2018
HD Live streaming from Space Station
objects crossing your sky now

NIMBUS 2 DEB

Track NIMBUS 2 DEB now!
10-day predictions


NORAD ID: 28612
Int'l Code: 1966-040AB
Perigee: 999.8 km
Apogee: 1,066.6 km
Inclination: 100.4 °
Period: 105.7 minutes
Semi major axis: 7404 km
RCS: 0.0132 m2 (small)
Launch date: May 15, 1966
Source: United States (US)
Launch site: AIR FORCE WESTERN TEST RANGE (AFWTR)

Note: This is SATELLITE DEBRIS
aabbcc
Your satellite tracking list
Your tracking list is empty




NASA's NSSDC Master Catalog

Two Line Element Set (TLE):
1 28612U 66040AB  18261.83441067  .00000880  00000-0  11865-2 0  9995
2 28612 100.4023 252.4326 0045120 267.1488 212.6017 13.62651338788676
Source of the keplerian elements: AFSPC